Regional Weather Roundup
Issued by NWS

Home | Current Version | Previous Version | Text Only | Print | Product List | Glossary Off
Versions: 1 2 3 4 5 6 7 8 9 10 11 12 13 14 15 16 17 18 19 20 21 22 23 24 25 26 27 28 29 30 31 32 33 34 35 36 37 38 39 40 41 42 43 44 45 46 47 48 49 50

000
ASUS43 KIND 271359
RWRIN

WEATHER ROUNDUP FOR INDIANA
NATIONAL WEATHER SERVICE INDIANAPOLIS IN
1000 AM EDT WED MAY 27 2015

NOTE: "FAIR" INDICATES FEW OR NO CLOUDS BELOW 12,000 FEET WITH NO
SIGNIFICANT WEATHER AND/OR OBSTRUCTIONS TO VISIBILITY.

* - STATION DOES NOT REPORT WEATHER SUCH AS PRECIPITATION OR FOG.

+ - STATION NOT QUALITY CONTROLLED BY THE NATIONAL WEATHER SERVICE.
    USE DATA WITH CAUTION...ESPECIALLY DEWPOINT AND RELATIVE
    HUMIDITY OBSERVATIONS.

INZ001>003-010>013-019-020-271500-
NORTHWEST INDIANA

CITY           SKY/WX    TMP DP  RH WIND       PRES   REMARKS
MONTICELLO +   CLOUDY    71  65  82 SW15G24   30.01S
RENSSELAER +   PTSUNNY   70  64  83 SW14      29.99F

$$

LMZ046-743>745-271500-
SOUTHERN LAKE MICHIGAN

STATION/POSITION TIME  TEMP    WIND        PRES    WAVE
                       AIR SEA DIR/SP/G            HT
                 (UTC) (F)     (DEG/KT/KT) (MB)    (FT)
BURNS HARBOR     1300   69     220/ 16/ 21 1015.2R
MICHIGAN CITY    1300   67     200/ 16/ 20   N/A
5NW MICH CITY    1300   59 52  240/  8/ 10   N/A     1

$$

INZ004-005-014>016-021>024-271500-
NORTH CENTRAL INDIANA

CITY           SKY/WX    TMP DP  RH WIND       PRES   REMARKS
ELKHART        MOSUNNY   72  63  73 SW12G17   29.99R
GOSHEN         MOSUNNY   72  62  71 SW22G29   29.99R
SOUTH BEND     PTSUNNY   71  62  73 SW17G25   29.98R
WARSAW +       MOSUNNY   70  63  78 SW14G21   30.01S

$$

INZ006>009-017-018-025>027-271500-
NORTHEAST INDIANA

CITY           SKY/WX    TMP DP  RH WIND       PRES   REMARKS
ANGOLA *+      PTSUNNY   72  64  78 W14       29.99S
FORT WAYNE     PTSUNNY   72  63  73 SW18      30.03R

$$

INZ028-029-035-036-043>045-051>053-271500-
WEST CENTRAL INDIANA

CITY           SKY/WX    TMP DP  RH WIND       PRES   REMARKS
CRAWFORDSVL +  MOSUNNY   71  59  64 SW15      30.05F
GREENCASTLE +  MOSUNNY   70  59  68 SW5       30.07F
LAFAYETTE      PTSUNNY   72  64  76 SW9       30.02S
TERRE HAUTE    MOSUNNY   72  64  76 SW14      30.06F

$$

INZ030>032-037>040-046>048-054>057-064-065-271500-
CENTRAL INDIANA

CITY           SKY/WX    TMP DP  RH WIND       PRES   REMARKS
ANDERSON       SUNNY     72  59  64 SW12G17   30.09R
GREENWOOD *+   SUNNY     72  63  73 SW9       30.09S
INDIANAPOLIS   MOSUNNY   73  62  68 SW16      30.06S
-EAGLE CREEK   SUNNY     73  63  70 SW6G18    30.06S
KOKOMO *+      PTSUNNY   73  63  68 SW20      30.04S
MT COMFORT *+  SUNNY     72  61  68 SW16      30.08F
SHELBYVILLE    SUNNY     73  65  75 SW13      30.09S

$$

INZ033-034-041-042-049-050-058-059-271500-
EAST CENTRAL INDIANA

CITY           SKY/WX    TMP DP  RH WIND       PRES   REMARKS
MUNCIE         MOSUNNY   72  63  73 SW12G20   30.07R

$$

INZ060-061-067>069-081>083-085>088-271500-
SOUTHWEST INDIANA

CITY           SKY/WX    TMP DP  RH WIND       PRES   REMARKS
EVANSVILLE     MOSUNNY   73  65  75 S10       30.11S
HUNTINGBURG *+ PTSUNNY   72  64  78 S6        30.12F

$$

INZ062-063-066-070>080-084-089>092-271500-
SOUTH CENTRAL AND SOUTHEAST INDIANA

CITY           SKY/WX    TMP DP  RH WIND       PRES   REMARKS
BLOOMINGTON    MOSUNNY   73  63  70 SW10      30.10S
MADISON *+     PTSUNNY   72  63  73 SW9       30.16S
SEYMOUR +      SUNNY     75  64  69 SW10      30.12S

$$




USA.gov is the U.S. government's official web portal to all federal, state and local government web resources and services.